Tucson, AZ

9:11 AM MST on February 20, 2017 (GMT -0700)
Tucson International

Weather History for KTUS - August, 2013

Change the Weather History Date:

Sunday, August 11, 2013

  Actual Average Record
Temperature  
Mean Temperature 87 °F 85 °F  
Max Temperature 100 °F 97 °F 108 °F (1993)
Min Temperature 74 °F 74 °F 62 °F (1917)
Degree Days  
Heating Degree Days 0 0  
Month to date heating degree days 0 0  
Since 1 June heating degree days 0 0  
Since 1 July heating degree days 0 0  
Cooling Degree Days 22 20  
Month to date cooling degree days 229 226  
Year to date cooling degree days 2401 2005  
Since 1 June cooling degree days 1690 1503  
Growing Degree Days 36 (Base 50)    
Moisture  
Dew Point 53 °F    
Average Humidity 30    
Maximum Humidity 43    
Minimum Humidity 17    
Precipitation  
Precipitation 0.00 in 0.09 in 2.07 in (1995)
Month to date precipitation 0.20 0.92  
Year to date precipitation 4.57 6.44  
Snow  
Snow 0.00 in - - ()
Month to date snowfall 0.0  
Snow Depth 0.00 in    
Sea Level Pressure  
Sea Level Pressure 29.83 in    
Wind  
Wind Speed 8 mph (ESE)    
Max Wind Speed 22 mph    
Max Gust Speed 28 mph    
Visibility 10 miles    
Events      
T = Trace of Precipitation, MM = Missing Value Source: NWS Daily Summary

Daily Weather History Graph

Daily Weather History Graph

Search for Another Location

Airport or City:

Trip Planner

Search our weather history database for the weather conditions in past years. The results will help you decide how hot, cold, wet, or windy it might be!

Date:

Astronomy

Aug. 11, 2013 Rise Set
Actual Time 5:45 AM MST 7:11 PM MST
Civil Twilight 5:19 AM MST 7:37 PM MST
Nautical Twilight 4:48 AM MST 8:08 PM MST
Astronomical Twilight 4:16 AM MST 8:40 PM MST
Moon 10:16 AM MST (8/11) 9:51 PM MST (8/11)
Length of Visible Light 14h 17m
Length of Day
13h 25m
Waxing Crescent, 23% of the Moon is Illuminated
Aug 11
Waxing Crescent
Aug 14
First Quarter
Aug 20
Full
Aug 28
Last Quarter
Sep 5
New

Hourly Weather History & Observations

Time (MST) Temp. Heat Index Dew Point Humidity Pressure Visibility Wind Dir Wind Speed Gust Speed Precip Events Conditions
12:53 AM 82.9 °F - 36.0 °F 19% 29.88 in 10.0 mi SE 4.6 mph - N/A   Clear
1:53 AM 82.9 °F - 36.0 °F 19% 29.88 in 10.0 mi SE 6.9 mph - N/A   Clear
2:53 AM 81.0 °F - 37.0 °F 21% 29.87 in 10.0 mi SE 4.6 mph - N/A   Clear
3:53 AM 79.0 °F - 46.9 °F 32% 29.87 in 10.0 mi Calm Calm - N/A   Partly Cloudy
4:53 AM 78.1 °F - 52.0 °F 40% 29.88 in 10.0 mi SE 3.5 mph - N/A   Partly Cloudy
5:53 AM 77.0 °F - 46.9 °F 34% 29.89 in 10.0 mi South 3.5 mph - N/A   Clear
6:53 AM 82.0 °F 81.7 °F 57.0 °F 42% 29.89 in 10.0 mi SE 12.7 mph - N/A   Clear
7:53 AM 86.0 °F 84.9 °F 57.0 °F 37% 29.89 in 10.0 mi ESE 15.0 mph - N/A   Clear
8:53 AM 89.1 °F 87.7 °F 57.0 °F 34% 29.89 in 10.0 mi SE 17.3 mph - N/A   Clear
9:53 AM 91.0 °F 89.7 °F 57.0 °F 32% 29.88 in 10.0 mi ESE 10.4 mph - N/A   Partly Cloudy
10:53 AM 93.9 °F 92.2 °F 55.9 °F 28% 29.86 in 10.0 mi SE 15.0 mph 18.4 mph N/A   Clear
11:53 AM 97.0 °F 94.6 °F 53.1 °F 23% 29.84 in 10.0 mi SSE 13.8 mph 18.4 mph N/A   Clear
12:53 PM 98.1 °F - 50.0 °F 20% 29.82 in 10.0 mi Variable 4.6 mph - N/A   Clear
1:53 PM 97.0 °F 94.6 °F 53.1 °F 23% 29.79 in 10.0 mi East 6.9 mph - N/A   Partly Cloudy
2:53 PM 97.0 °F 94.6 °F 54.0 °F 23% 29.77 in 10.0 mi Calm Calm - N/A   Scattered Clouds
3:53 PM 98.1 °F 96.1 °F 54.0 °F 23% 29.75 in 10.0 mi East 3.5 mph - N/A   Scattered Clouds
4:53 PM 97.0 °F 96.1 °F 57.9 °F 27% 29.75 in 10.0 mi ENE 20.7 mph 27.6 mph N/A   Partly Cloudy
5:05 PM 96.1 °F 95.6 °F 59.0 °F 29% 29.90 in 10.0 mi ENE 12.7 mph - N/A   Partly Cloudy
5:53 PM 96.1 °F 93.5 °F 53.1 °F 23% 29.74 in 10.0 mi East 8.1 mph - N/A   Clear
6:24 PM 95.0 °F 92.7 °F 54.0 °F 25% 29.90 in 10.0 mi SE 18.4 mph - N/A   Scattered Clouds
6:53 PM 93.9 °F 91.7 °F 54.0 °F 26% 29.74 in 10.0 mi SE 9.2 mph - N/A   Clear
7:53 PM 91.0 °F 89.2 °F 55.9 °F 30% 29.75 in 10.0 mi East 10.4 mph - N/A   Clear
8:53 PM 90.0 °F 88.1 °F 55.9 °F 31% 29.77 in 10.0 mi ESE 6.9 mph - N/A   Clear
9:53 PM 88.0 °F 86.7 °F 57.0 °F 35% 29.79 in 10.0 mi East 6.9 mph - N/A   Clear
10:53 PM 88.0 °F 86.7 °F 57.0 °F 35% 29.80 in 10.0 mi North 3.5 mph - N/A   Partly Cloudy
11:53 PM 87.1 °F 86.5 °F 59.0 °F 39% 29.81 in 10.0 mi ENE 6.9 mph - N/A   Scattered Clouds